Location: Blue Pit
(43.1414°N, 93.2208°W)
Time: 23:12:02
(UTC+00:00)

NOSS 2-2 (C) - Pass Details

Date: 18 November 2025
Orbit: 381 x 1696 km, 63.3° (Epoch: 14 December)

Event Time Altitude Azimuth Distance (km) Brightness Sun altitude
Exits shadow 12:10:33 12° 313° (NW) 1,749 5.3 -10.9°
Maximum altitude 12:14:19 56° 236° (WSW) 836 4.0 -10.3°
Drops below altitude 10° 12:20:03 10° 160° (SSE) 2,605 7.3 -9.3°
Sets 12:23:06 0° 156° (SSE) 3,784 8.3 -8.7°
